Voltar ao catálogo

DELTA 1 DEB

AtivoPO
NORAD 14460·DEBRIS·🇺🇸 United States

Lançado Mar 5, 1978 de Vandenberg Space Force Base

Loading…

Próximas Passagens (próximas 24 horas)

TLE

AtualizadoSource: Space-Track

Época: Sep 14, 2026, 13:48 UTC

1 14460U 78026GA  26257.57512911  .00000226  00000-0  29346-3 0  9998
2 14460  98.8290 168.3410 0253773 184.2780 300.6892 13.58558913150218

Acompanhe DELTA 1 DEB em tempo real com AllMySat

Download on the App Store